Weather History for North Bend, OR

Change the Weather History Date:

Sunday, December 23, 2012

  Actual Average Record
Temperature  
Mean Temperature 43 °F 45 °F  
Max Temperature 46 °F 51 °F 66 °F (1919)
Min Temperature 39 °F 40 °F 20 °F (1983)
Degree Days  
Heating Degree Days 22 20  
Month to date heating degree days 417 453  
Since 1 July heating degree days 1703 1905  
Cooling Degree Days 0 0  
Month to date cooling degree days 0 0  
Year to date cooling degree days 1 2  
Moisture  
Dew Point 42 °F    
Average Humidity 95    
Maximum Humidity 100    
Minimum Humidity 92    
Precipitation  
Precipitation 0.75 in 0.36 in 4.22 in (1971)
Month to date precipitation 10.40 8.35  
Year to date precipitation 53.90 62.13  
Sea Level Pressure  
Sea Level Pressure 29.78 in    
Wind  
Wind Speed 7 mph (SE)    
Max Wind Speed 15 mph    
Max Gust Speed 17 mph    
Visibility 10 miles    
Events      
T = Trace of Precipitation, MM = Missing Value Source: NWS Daily Summary

Daily Weather History Graph

Daily Weather History Graph

Search for Another Location

Airport:

Trip Planner

Search our weather history database for the weather conditions in past years. The results will help you decide how hot, cold, wet, or windy it might be!

Date:

Astronomy

Dec. 23, 2012 Rise Set
Actual Time 7:47 AM PST 4:45 PM PST
Civil Twilight 7:14 AM PST 5:17 PM PST
Nautical Twilight 6:38 AM PST 5:54 PM PST
Astronomical Twilight 6:03 AM PST 6:28 PM PST
Moon 1:42 PM PST (12/23) 3:32 AM PST (12/23)
Length of Visible Light 10h 03m
Length of Day
8h 57m
Waxing Gibbous, 82% of the Moon is Illuminated
Dec 23
Waxing Gibbous
Dec 28
Full
Jan 4
Last Quarter
Jan 11
New
Jan 18
First Quarter

Hourly Weather History & Observations

Time (PST) Temp. Windchill Dew Point Humidity Pressure Visibility Wind Dir Wind Speed Gust Speed Precip Events Conditions
12:15 AM 42.8 °F 37.5 °F 41.0 °F 93% 29.80 in 10.0 mi SSE 9.2 mph - 0.01 in   Overcast
12:35 AM 42.8 °F 41.1 °F 41.0 °F 93% 29.81 in 10.0 mi SW 3.5 mph - 0.04 in   Overcast
12:55 AM 42.8 °F - 41.0 °F 93% 29.80 in 10.0 mi Calm Calm - 0.05 in   Overcast
1:15 AM 41.0 °F 37.1 °F 41.0 °F 100% 29.81 in 10.0 mi SSE 5.8 mph - 0.04 in   Overcast
1:35 AM 42.8 °F 36.6 °F 41.0 °F 93% 29.80 in 10.0 mi SSE 11.5 mph 17.3 mph 0.05 in   Overcast
1:55 AM 42.8 °F 35.4 °F 41.0 °F 93% 29.79 in 10.0 mi SSE 15.0 mph - 0.08 in   Overcast
2:15 AM 42.8 °F 36.2 °F 41.0 °F 93% 29.80 in 10.0 mi SSE 12.7 mph 17.3 mph 0.01 in   Overcast
2:35 AM 42.8 °F 36.2 °F 41.0 °F 93% 29.79 in 10.0 mi SE 12.7 mph - 0.02 in   Overcast
2:55 AM 42.8 °F 37.5 °F 41.0 °F 93% 29.79 in 10.0 mi SE 9.2 mph - 0.03 in   Overcast
3:15 AM 42.8 °F 37.0 °F 41.0 °F 93% 29.78 in 10.0 mi SE 10.4 mph - 0.04 in   Overcast
3:35 AM 42.8 °F 36.6 °F 41.0 °F 93% 29.77 in 10.0 mi ESE 11.5 mph - 0.09 in   Overcast
3:55 AM 42.8 °F 36.6 °F 41.0 °F 93% 29.76 in 10.0 mi SE 11.5 mph - 0.10 in   Overcast
4:15 AM 42.8 °F 36.2 °F 41.0 °F 93% 29.75 in 10.0 mi SE 12.7 mph 17.3 mph 0.01 in   Overcast
4:35 AM 42.8 °F 37.5 °F 41.0 °F 93% 29.74 in 9.0 mi SE 9.2 mph - 0.02 in   Overcast
4:55 AM 42.8 °F 39.3 °F 41.0 °F 93% 29.74 in 10.0 mi East 5.8 mph - 0.06 in   Overcast
5:15 AM 42.8 °F 41.1 °F 41.0 °F 93% 29.74 in 10.0 mi ESE 3.5 mph - 0.01 in   Overcast
5:35 AM 42.8 °F 39.3 °F 41.0 °F 93% 29.73 in 7.0 mi SE 5.8 mph - 0.05 in   Overcast
5:55 AM 42.8 °F 40.1 °F 42.8 °F 100% 29.71 in 9.0 mi East 4.6 mph - 0.09 in   Overcast
6:15 AM 42.8 °F 40.1 °F 42.8 °F 100% 29.70 in 7.0 mi ESE 4.6 mph - 0.03 in   Overcast
6:35 AM 42.8 °F 38.6 °F 42.8 °F 100% 29.69 in 9.0 mi East 6.9 mph - 0.07 in   Overcast
6:55 AM 42.8 °F 39.3 °F 42.8 °F 100% 29.68 in 10.0 mi ESE 5.8 mph - 0.09 in   Overcast
7:15 AM 42.8 °F 41.1 °F 42.8 °F 100% 29.67 in 10.0 mi ESE 3.5 mph - 0.02 in   Overcast
7:35 AM 42.8 °F 39.3 °F 42.8 °F 100% 29.66 in 10.0 mi East 5.8 mph - 0.04 in   Overcast
7:55 AM 42.8 °F 40.1 °F 42.8 °F 100% 29.65 in 10.0 mi East 4.6 mph - 0.06 in   Overcast
8:15 AM 42.8 °F 38.6 °F 41.0 °F 93% 29.64 in 10.0 mi East 6.9 mph - 0.02 in   Overcast
8:35 AM 42.8 °F 41.1 °F 41.0 °F 93% 29.63 in 10.0 mi East 3.5 mph - 0.03 in   Overcast
8:55 AM 42.8 °F 38.6 °F 41.0 °F 93% 29.62 in 10.0 mi East 6.9 mph - 0.04 in   Overcast
9:15 AM 42.8 °F 40.1 °F 41.0 °F 93% 29.62 in 10.0 mi ESE 4.6 mph - 0.01 in   Overcast
9:35 AM 42.8 °F 40.1 °F 42.8 °F 100% 29.63 in 10.0 mi SSE 4.6 mph - 0.03 in   Overcast
9:55 AM 42.8 °F 39.3 °F 42.8 °F 100% 29.63 in 10.0 mi SE 5.8 mph - 0.05 in   Overcast
10:15 AM 42.8 °F 39.3 °F 42.8 °F 100% 29.64 in 10.0 mi SE 5.8 mph - 0.01 in   Overcast
10:35 AM 42.8 °F 39.3 °F 42.8 °F 100% 29.64 in 10.0 mi SE 5.8 mph - 0.03 in   Overcast
10:55 AM 42.8 °F 38.6 °F 42.8 °F 100% 29.65 in 10.0 mi SSE 6.9 mph - 0.03 in   Overcast
11:15 AM 42.8 °F 38.0 °F 42.8 °F 100% 29.65 in 10.0 mi SE 8.1 mph - N/A   Overcast
11:35 AM 42.8 °F 38.0 °F 42.8 °F 100% 29.65 in 10.0 mi SSE 8.1 mph - N/A   Overcast
11:55 AM 42.8 °F 38.0 °F 41.0 °F 93% 29.66 in 10.0 mi SSE 8.1 mph - N/A   Overcast
12:15 PM 44.6 °F 40.2 °F 42.8 °F 93% 29.68 in 10.0 mi South 8.1 mph - N/A   Overcast
12:35 PM 44.6 °F 41.4 °F 42.8 °F 93% 29.69 in 10.0 mi South 5.8 mph - 0.01 in   Overcast
12:55 PM 44.6 °F 40.2 °F 42.8 °F 93% 29.69 in 10.0 mi South 8.1 mph - 0.01 in   Overcast
1:15 PM 44.6 °F 40.2 °F 44.6 °F 100% 29.69 in 10.0 mi SSE 8.1 mph - N/A   Overcast
1:35 PM 44.6 °F 40.7 °F 42.8 °F 93% 29.70 in 10.0 mi South 6.9 mph - N/A   Overcast
1:55 PM 46.4 °F 43.5 °F 44.6 °F 93% 29.71 in 10.0 mi South 5.8 mph - N/A   Mostly Cloudy
2:15 PM 46.4 °F 43.5 °F 44.6 °F 93% 29.72 in 10.0 mi South 5.8 mph - N/A   Mostly Cloudy
2:35 PM 46.4 °F 44.3 °F 44.6 °F 93% 29.73 in 10.0 mi SSW 4.6 mph - 0.01 in   Overcast
2:55 PM 44.6 °F 40.2 °F 42.8 °F 93% 29.74 in 10.0 mi SSW 8.1 mph - 0.03 in   Mostly Cloudy
3:15 PM 44.6 °F 41.4 °F 42.8 °F 93% 29.76 in 10.0 mi South 5.8 mph - N/A   Overcast
3:35 PM 44.6 °F 42.2 °F 41.0 °F 87% 29.77 in 10.0 mi SSW 4.6 mph - N/A   Overcast
3:55 PM 44.6 °F 40.7 °F 42.8 °F 93% 29.77 in 10.0 mi South 6.9 mph - N/A   Overcast
4:15 PM 44.6 °F 40.7 °F 42.8 °F 93% 29.79 in 10.0 mi SSW 6.9 mph - N/A   Overcast
4:35 PM 44.6 °F 40.2 °F 42.8 °F 93% 29.80 in 10.0 mi SSW 8.1 mph - N/A   Overcast
4:55 PM 44.6 °F - 42.8 °F 93% 29.81 in 10.0 mi Calm Calm - N/A   Mostly Cloudy
5:15 PM 46.4 °F 40.4 °F 39.2 °F 76% 29.81 in 10.0 mi WNW 13.8 mph - N/A   Mostly Cloudy
5:35 PM 44.6 °F 42.2 °F 37.4 °F 76% 29.83 in 10.0 mi WNW 4.6 mph - N/A   Partly Cloudy
5:55 PM 41.0 °F 38.0 °F 39.2 °F 93% 29.84 in 10.0 mi SSE 4.6 mph - N/A   Clear
6:15 PM 41.0 °F 39.0 °F 41.0 °F 100% 29.85 in 10.0 mi SSE 3.5 mph - N/A   Scattered Clouds
6:55 PM 42.8 °F 38.0 °F 42.8 °F 100% 29.86 in 8.0 mi ESE 8.1 mph - 0.03 in   Overcast
7:15 PM 42.8 °F 38.6 °F 41.0 °F 93% 29.88 in 10.0 mi SSE 6.9 mph - N/A   Mostly Cloudy
7:35 PM 41.0 °F 36.4 °F 41.0 °F 100% 29.88 in 10.0 mi SE 6.9 mph - N/A   Scattered Clouds
7:55 PM 41.0 °F 38.0 °F 41.0 °F 100% 29.90 in 10.0 mi East 4.6 mph - N/A   Mostly Cloudy
8:15 PM 41.0 °F 35.8 °F 41.0 °F 100% 29.91 in 10.0 mi SE 8.1 mph - N/A   Mostly Cloudy
8:35 PM 41.0 °F 37.1 °F 41.0 °F 100% 29.92 in 10.0 mi SE 5.8 mph - N/A   Mostly Cloudy
8:55 PM 41.0 °F 38.0 °F 41.0 °F 100% 29.93 in 10.0 mi ESE 4.6 mph - N/A   Mostly Cloudy
9:15 PM 41.0 °F 39.0 °F 41.0 °F 100% 29.94 in 10.0 mi SE 3.5 mph - N/A   Scattered Clouds
9:35 PM 42.8 °F 39.3 °F 41.0 °F 93% 29.95 in 10.0 mi ESE 5.8 mph - N/A   Mostly Cloudy
9:55 PM 41.0 °F 36.4 °F 41.0 °F 100% 29.96 in 10.0 mi ESE 6.9 mph - N/A   Mostly Cloudy
10:15 PM 39.2 °F 37.0 °F 37.4 °F 93% 29.97 in 10.0 mi South 3.5 mph - N/A   Partly Cloudy
10:35 PM 39.2 °F 35.0 °F 37.4 °F 93% 29.98 in 10.0 mi SE 5.8 mph - N/A   Mostly Cloudy
10:55 PM 41.0 °F 38.0 °F 41.0 °F 100% 29.99 in 10.0 mi East 4.6 mph - N/A   Mostly Cloudy
11:15 PM 41.0 °F 38.0 °F 41.0 °F 100% 30.00 in 10.0 mi SSE 4.6 mph - N/A   Overcast
11:35 PM 39.2 °F 35.9 °F 39.2 °F 100% 30.01 in 10.0 mi SSE 4.6 mph - N/A   Overcast
11:55 PM 41.0 °F 38.0 °F 41.0 °F 100% 30.02 in 10.0 mi South 4.6 mph - N/A   Overcast